Showing default

HERMES-1, 63242

Orbit data source: Space-Track

HERMES-1, 63242 is a payload satellite owned by ASI (IT) in SSO that was launched on Sat, 15 Mar 2025 UTC via an FALCON 9 launch vehicle from the Air Force Western Test Range (AFWTR). Payload-class satellites include a variety of spacecraft equipped with specific instruments for various scientific and technological missions. These include communications satellites like Starlink; space stations such as the ISS; scientific satellites like the Hubble; Earth observation satellites from companies like Planet Labs, Umbra, and HawkEye 360; GPS; miniature CubeSats for education and research; and military/defense satellites.

Loading next visibility...
Identifier
63242, 2025-052AJ
Orbit
SSO
Country
Flag of ITIT
Related business
Manufacturer
MILANP/INAFI
Mission
Operational Civil Astronomy
Bus & Motor
CUBESAT 3U, Unknown motor
Mass
5 kg wet, 5 kg dry
Launch date (UTC)
2025-03-15 (1 year ago)
Launch vehicle
FALCON 9
Launch site
Air Force Western Test Range (AFWTR)
Object type
Payload
Rocket body
Debris
Shape & HBR
Box, 0.1 m
Radar Cross Section
0.035 m², Medium (>0.1 m² and < 1m²)

Expand to show TLE details & history
Last TLE update: 6 hours ago

TLE from 6 hours ago
0 HERMES-1
1 63242U 25052AJ  26175.19410603  .00004072  00000-0  18316-3 0  9991
2 63242  97.3900  66.6900 0008133 147.5973 212.5764 15.21641059 70867
Epoch: 2026-06-24T04:39Z
TLE epoch observation values (Epoch: 2026-06-24T04:39:30.760Z)
Latitude
-0.00005°
Longitude
84.45702°
Altitude
508.7 km
Speed
7.607 km/s
True Right ascension
04h 26m 45s
True Declination
0° 00' 00"
Sunlit
Object was in daylight at epoch
Visualization orbit readout
Latitude
Unknown
Longitude
Unknown
Altitude
Unknown
Speed
Unknown
Apparent Right ascension
Unknown
Apparent Declination
Unknown
Sunlit
N/A
Visualization observer readout
Local Sidereal Time
21:55:36
Azimuth
Unknown
Elevation
Unknown
Doppler factor
Unknown
Orbital elements
Apogee altitude
503.445 km
Perigee altitude
492.261 km
Semi-major axis
6,875.99 km
Eccentricity
0.00081
Inclination
97.39°
RAAN
66.69°
Arg. of periapsis
147.5973°
True anomaly
212.52626°
Mean anomaly
212.5764°
Eccentric anomaly
212.55133°
Mean motion
3.80663 °/min
Orbital period
94.57 mins
BSTAR
0.00018316
Loading maneuver chart data...
Computing Atmospheric mass density...
Loading historical data...
Loading historical data...
Loading historical data...
Loading historical data...
Loading historical data...
Loading historical data...
Loading historical data...

Documentation

Showing up to 5 results
|